Home   Weather   Kehl   Past weeks

Flag for Germany Past Weather in Kehl, Baden-Württemberg, Germany — Yesterday and Last 2 Weeks

Now
63 °F

Sunny.


Feels Like: 63 °F
Forecast: 40 / 57 °F
Wind: 2 mph from North

Location: Strasbourg Airport

Current Time: Apr 24, 2017 at 3:24:52 pm

Latest Report: Apr 24, 2017 at 3:00 pm


Visibility: 10 mi

Pressure: 29.95 "Hg

Humidity: 34%

Dew Point: 34 °F

Location of KehlLocation

Past Weather in Kehl — Graph

°F

Kehl Temperature Yesterday

Maximum temperature yesterday: 57 °F (at 5:30 pm)
Minimum temperature yesterday: 36 °F (at 4:30 am)
Average temperature yesterday: 47 °F

High & Low Weather Summary for the Past Weeks

 TemperatureHumidityPressure
High81 °F (Apr 10, 3:00 pm)100% (Apr 23, 12:30 am)30.60 "Hg (Apr 23, 12:30 am)
Low30 °F (Apr 20, 3:30 am)22% (Apr 21, 6:30 pm)29.95 "Hg (Apr 12, 7:00 pm)
Average50 °F62%30.20 "Hg
* Reported Apr 9 2:00 pm — Apr 24 2:00 pm, Kehl, Weather by CustomWeather, © 2017

Note: Actual official high and low records may vary slightly from our data, if they occured in-between our weather recording intervals... More about our weather records

Advertising

Kehl Weather History for the Previous 24 Hours

Scroll right to see more
 ConditionsComfort  
Time TempWeatherWind HumidityBarometerVisibility
2:00 pm
Mon, Apr 24
61 °FPassing clouds.3 mph34%29.98 "HgN/A
1:30 pm61 °FSunny.2 mph36%30.01 "Hg10 mi
1:00 pm59 °FSunny.3 mph36%30.01 "Hg10 mi
12:30 pm57 °FSunny.2 mph39%30.04 "Hg10 mi
12:00 pm55 °FPassing clouds.3 mph38%30.04 "HgN/A
11:30 am54 °FPassing clouds.3 mph41%30.07 "HgN/A
11:00 am54 °FPassing clouds.5 mph41%30.07 "HgN/A
10:30 am52 °FPassing clouds.3 mph47%30.07 "HgN/A
10:00 am48 °FPassing clouds.3 mph50%30.07 "HgN/A
9:30 am48 °FPassing clouds.3 mph50%30.09 "HgN/A
9:00 am46 °FSunny.2 mph53%30.09 "Hg10 mi
8:30 am43 °FSunny.2 mph61%30.09 "Hg10 mi
8:00 am41 °FSunny.3 mph61%30.12 "Hg10 mi
7:30 am37 °FSunny.2 mph70%30.12 "Hg10 mi
7:00 am34 °FSunny.3 mph81%30.12 "Hg10 mi
6:30 am32 °FSunny.3 mph87%30.12 "Hg10 mi
6:00 am32 °FClear.3 mph80%30.12 "Hg10 mi
5:30 am32 °FClear.3 mph87%30.12 "Hg10 mi
4:30 am34 °FClear.2 mph81%30.12 "Hg10 mi
4:00 am36 °FClear.2 mph75%30.15 "Hg10 mi
3:30 am37 °FClear.3 mph70%30.15 "Hg10 mi
3:00 am36 °FClear.3 mph75%30.15 "Hg10 mi
2:30 am36 °FClear.2 mph70%30.18 "Hg10 mi
2:00 am37 °FClear.2 mph70%30.18 "Hg10 mi
1:30 am39 °FClear.2 mph65%30.18 "Hg10 mi
1:00 am39 °FClear.3 mph65%30.21 "Hg10 mi
12:30 am41 °FClear.3 mph61%30.21 "Hg10 mi
12:00 am43 °FClear.6 mph57%30.21 "Hg10 mi
11:30 pm
Sun, Apr 23
45 °FPassing clouds.5 mph53%30.21 "HgN/A
10:30 pm48 °FClear.8 mph46%30.21 "Hg10 mi
10:00 pm48 °FClear.9 mph46%30.21 "Hg10 mi
9:30 pm50 °FClear.10 mph43%30.21 "Hg10 mi
9:00 pm50 °FClear.9 mph43%30.21 "Hg10 mi
8:30 pm52 °FSunny.10 mph41%30.21 "Hg10 mi
8:00 pm54 °FSunny.9 mph38%30.21 "Hg10 mi
7:30 pm54 °FSunny.9 mph38%30.21 "Hg10 mi
7:00 pm55 °FPassing clouds.8 mph36%30.21 "HgN/A
6:30 pm57 °FPassing clouds.3 mph33%30.21 "HgN/A
6:00 pm57 °FPassing clouds.6 mph33%30.21 "HgN/A
5:30 pm57 °FPassing clouds.7 mph33%30.21 "HgN/A
5:00 pm55 °FPassing clouds.7 mph33%30.21 "HgN/A
4:30 pm55 °FSunny.3 mph36%30.21 "Hg10 mi
4:00 pm55 °FPassing clouds.6 mph33%30.24 "HgN/A
3:00 pm55 °FPassing clouds.6 mph33%30.24 "HgN/A
Weather by CustomWeather, © 2017

See weather overviewHow to use our weather pages